EXPRESS-AMU1 (41191 NORAD) Tracking and Keplerian Element Data

This shows tracking and keplerian element data for the satellite.

Feedback or suggestion? Click here.




ElementValue
Catalog41191
NameEXPRESS-AMU1
Epoch Orbit2122
Epoch Day270.21165187
Epoch Year2021
RAAN150.4327
Inclination0.0173
Eccentricity0.0002656
Argument of Perigee49.8387
Mean Anonmoly278.241
Mean Motion1.00273841
Decay Rate1.54E-06
L11 41191U 15082A 21270.21165187 .00000154 00000-0 00000+0 0 9994
L22 41191 0.0173 150.4327 0002656 49.8387 278.2410 1.00273841 21226

Live tracking and technical data element details for EXPRESS-AMU1 (NORAD 41191). EXPRESS-AMU1 can be tracked NOW for your location showing map with azimuth and elevation plus other details from your city location.

Track the satellite on the map from your city or location and see movement details for azimuth, elevation, latitude, longitude, range, height, and movement on the map or in text.







IsCatalogInMostPopularTable: catalog: 41191, numindb: 535
Update: records affected: 1



GetName: 41191 EXPRESS-AMU1

Hit Count: updated at: Tue, 28 Sep 2021 17:23:36 GMT